weather.gov     
National Weather Service

Regional Weather Roundup
NWS Homepage
This page is being discontinued on March 12, 2014.
The same data is available at this site. Please update your bookmarks.
Thank you, and we apologize for the inconvenience.
Please send an email to SR-SRH.Webmaster@noaa.gov with any concerns.


Current Version
Previous Version:    01  02  03  04  05  06  07  08  09  10  11  12  13  14  15  16  17  18  19  20  21  22  23  24  25  26  
[Printable]
027
ASUS41 KOKX 301505
RWROKX

REGIONAL WEATHER ROUNDUP
NATIONAL WEATHER SERVICE NEW YORK NY
1100 AM EDT WED JUL 30 2014

NOTE: "FAIR" INDICATES FEW OR NO CLOUDS BELOW 12,000 FEET WITH NO
SIGNIFICANT WEATHER AND/OR OBSTRUCTIONS TO VISIBILITY.

NYZ071-072-176-178-NJZ106-104-301600-
NEW YORK CITY METRO AREA


CITY           SKY/WX    TMP DP  RH WIND       PRES   REMARKS
CENTRAL PARK   SUNNY     73  51  46 VRB5      30.06S
LAGUARDIA APRT MOSUNNY   73  52  47 VRB3      30.03S
KENNEDY INTL   MOSUNNY   76  50  40 CALM      30.04S
NEWARK/LIBERTY MOSUNNY   75  50  41 VRB5      30.03S
BRNX BOT. GARD   N/A     73  52  46 S2        30.06R
TETERBORO      SUNNY     77  51  40 W6        30.02S
$$

NYZ177-179-078>081-301600-
LONG ISLAND NEW YORK

CITY           SKY/WX    TMP DP  RH WIND       PRES   REMARKS
FARMINGDALE    SUNNY     74  52  46 W7        30.03S
ISLIP          MOSUNNY   77  53  43 NW6       30.01S
SHIRLEY        SUNNY     75  53  46 W5        30.03S
WESTHAMPTON    PTSUNNY   76  55  48 W6        30.03F
MONTAUK POINT    N/A     74  55  51 NW3       30.03S
$$

NYZ052-065-067-301600-
HUDSON VALLEY

CITY           SKY/WX    TMP DP  RH WIND       PRES   REMARKS
WHITE PLAINS   MOSUNNY   71  53  52 N5        30.04R
NEWBURGH       MOSUNNY   70  54  56 CALM      30.05F
MONTGOMERY     SUNNY     72  56  57 VRB3      30.04S
POUGHKEEPSIE   MOSUNNY   69  57  65 CALM      30.03F
ALBANY         MOSUNNY   70  54  56 VRB3      30.04S
$$

NJZ001-105-106-008-010-013-015-019>022-104-301600-
NEW JERSEY

CITY           SKY/WX    TMP DP  RH WIND       PRES   REMARKS
NEWARK/LIBERTY MOSUNNY   75  50  41 VRB5      30.03S
TETERBORO      SUNNY     77  51  40 W6        30.02S
CALDWELL       SUNNY     72  52  49 CALM      30.04F
MORRISTOWN     SUNNY     73  54  49 CALM      30.04F
SOMERVILLE     SUNNY     74  54  49 CALM      30.03F
LINDEN         FAIR      76  52  43 NW5       30.05F
SUSSEX         SUNNY     72  53  51 CALM      30.04F
ANDOVER          N/A     71  54  54 CALM      30.05F
TRENTON        SUNNY     72  52  49 VRB5      30.05S
MILLVILLE      SUNNY     74  53  48 VRB3      30.06S
ATLANTIC CITY  SUNNY     75  54  47 N5        30.05S
WRIGHTSTOWN    SUNNY     74  56  53 W5        30.03S
TOMS RIVER     SUNNY     75  52  43 CALM      30.05S
BELMAR         SUNNY     73  54  49 CALM      30.05R
$$

PAZ047>061-062-071-301600-
EASTERN PENNSYLVANIA

CITY           SKY/WX    TMP DP  RH WIND       PRES   REMARKS
PHILADELPHIA   MOSUNNY   74  49  41 VRB3      30.06S
ALLENTOWN      SUNNY     72  54  53 SW3       30.06S
SCRANTON       SUNNY     69  52  54 VRB3      30.06S
$$

CTZ002-004>006-009-010-012-RIZ004-006-007-MAZ004-011-015-301600-
SOUTHERN NEW ENGLAND
 IN CT

CITY           SKY/WX    TMP DP  RH WIND       PRES   REMARKS
BRADLEY INTL   MOSUNNY   73  55  53 VRB5      30.02S
HARTFORD       SUNNY     74  53  48 VRB3      30.02S
DANBURY        SUNNY     70  52  52 SE3       30.05S
WTRBRY/OXFORD  MOSUNNY   70  54  56 VRB5      30.06S
BRIDGEPORT     SUNNY     72  57  59 S7        30.03S
MERIDEN        SUNNY     74  54  49 SW3       30.02S
NEW HAVEN      MOSUNNY   76  53  44 VRB5      30.03R
CHESTER        FAIR      73  54  49 NW6       30.03S
GROTON         MOSUNNY   72  59  63 SW8       30.01R
WILLIMANTIC    SUNNY     74  54  49 W5        30.02S

 IN RI

CITY           SKY/WX    TMP DP  RH WIND       PRES   REMARKS
PROVIDENCE     MOSUNNY   75  51  43 W7        30.01S
BLOCK ISLAND   SUNNY     73  57  56 S6        30.03R
WESTERLY       SUNNY     76  51  41 SW7       30.02S

 IN MA

CITY           SKY/WX    TMP DP  RH WIND       PRES   REMARKS
BOSTON         MOSUNNY   77  53  43 W8        30.00S
WORCESTER      SUNNY     69  52  54 W7        30.03S
WESTFIELD      MOSUNNY   71  57  61 CALM      30.02F
PROVINCETOWN   SUNNY     75  55  50 SW7       30.01S
NANTUCKET      SUNNY     72  62  71 SW8       30.01S
$$

ANZ330-335-338-340-345-350-353-355-301600-
COASTAL MARINE OBSERVATIONS


STATION/POSITION TIME  SKY/WX   TEMP    WIND        PRES    VSBY  WAVE
                                AIR SEA DIR/SP/G                  HT/PER
                 (UTC)          (F)     (DEG/KT/KT) (MB)    (MI)  (FT/S)
NY HARB ENTRANCE NOT AVBL
4S FIRE IS       NOT AVBL
23SW MTP         1500            73 71              1016.2          3/ 8
HUDSON CANYON    1500            72 75  230/  4/  4 1016.6          3/ 7
EXECUTION ROCKS  1500            70 70  110/  4/  6   N/A
WESTERN LI SOUND 1400            68     210/  4/  4   N/A           0
CENTRAL LI SOUND 1400            68 72  280/  4/  6   N/A           0
EASTERN LI SOUND 1400            70 69  190/  4/  6   N/A
ROBBINS REEF     1500            71     290/  6/  7   N/A
$$


>>>>>>>>>>>>>>>>>>>>>>>>>>>> KEY <<<<<<<<<<<<<<<<<<<<<<<<<<<
>                                                          <
>     SKY/WX - SKY CONDITION/PRESENT WEATHER               <
>     TMP    - TEMPERATURE IN FAHRENHEIT                   <
>     DP     - DEWPOINT IN FAHRENHEIT                      <
>     RH     - RELATIVE HUMIDITY IN PERCENT                <
>     WIND   - DIRECTION AND SPEED IN MPH                  <
>     PRES   - MEAN SEA LEVEL PRESSURE IN INCHES OF HG     <
>     WCI    - WIND CHILL INDEX                            <
>     VSB    - VISIBILITY IN MILES                         <
>     HX     - HEAT INDEX                                  <
>     TC     - TEMPERATURE IN CELSIUS                      <
>     VRB    - VARIABLE WIND DIRECTION                     <
>                                                          <
>>>>>>>>>>>>>>>>>>>>>>>>>>>> KEY <<<<<<<<<<<<<<<<<<<<<<<<<<<






U.S. Dept. of Commerce
NOAA National Weather Service
1325 East West Highway
Silver Spring, MD 20910
E-mail: w-nws.webmaster@noaa.gov
Page last modified: May 16, 2007
NATIONAL WEATHER SERVICE: for Safety, for Work, for Fun - FOR LIFE